STARLINK-37193, 68390

Orbit data source: Space-Track

STARLINK-37193, 68390 is a payload satellite owned by SpaceX/Seattle (US) in SSO that was launched on Thu, 26 Mar 2026 UTC via an FALCON 9 launch vehicle from the Air Force Western Test Range (AFWTR). Payload-class satellites include a variety of spacecraft equipped with specific instruments for various scientific and technological missions. These include communications satellites like Starlink; space stations such as the ISS; scientific satellites like the Hubble; Earth observation satellites from companies like Planet Labs, Umbra, and HawkEye 360; GPS; miniature CubeSats for education and research; and military/defense satellites.

Loading next visibility...
Identifier
68390, 2026-063L
Orbit
SSO
Country
Flag of USUS
Related business
Manufacturer
SpaceX/Seattle
Mission
Operational spacecraft
Bus & Motor
STARLINK V2MO, Unknown motor
Mass
575 kg wet, ~530 kg dry
Launch date (UTC)
2026-03-26 (2 weeks ago)
Launch vehicle
FALCON 9
Launch site
Air Force Western Test Range (AFWTR)
Object type
Payload
Rocket body
Debris
Shape & HBR
Unknown shape, 17.7 m
Radar Cross Section
RCS unknown

Expand to show TLE details & history
Last TLE update: 7 hours ago

TLE from 7 hours ago
0 STARLINK-37193
1 68390U 26063L   26102.25002315 -.01803109  00000-0 -80733-2 0  9999
2 68390  97.2766 243.8945 0001882  83.2477  71.7360 15.87190228  2188
Epoch: 2026-04-12T06:00Z
TLE epoch observation values (Epoch: 2026-04-12T06:00:02.000Z)
Latitude
24.81105°
Longitude
136.79349°
Altitude
313 km
Speed
7.723 km/s
True Right ascension
04h 29m 02s
True Declination
24° 40' 18"
Sunlit
Object was in daylight at epoch
Visualization orbit readout
Latitude
Unknown
Longitude
Unknown
Altitude
Unknown
Speed
Unknown
Apparent Right ascension
Unknown
Apparent Declination
Unknown
Sunlit
N/A
Visualization observer readout
Local Sidereal Time
19:27:44
Azimuth
Unknown
Elevation
Unknown
Doppler factor
Unknown
Orbital elements
Apogee altitude
308.294 km
Perigee altitude
305.778 km
Semi-major axis
6,685.173 km
Eccentricity
0.00019
Inclination
97.2766°
RAAN
243.8945°
Arg. of periapsis
83.2477°
True anomaly
71.75648°
Mean anomaly
71.736°
Eccentric anomaly
71.74624°
Mean motion
3.97077 °/min
Orbital period
90.66 mins
BSTAR
-0.0080733
Loading maneuver chart data...
Computing Atmospheric mass density...
Loading historical data...
Loading historical data...
Loading historical data...
Loading historical data...
Loading historical data...
Loading historical data...
Loading historical data...

Documentation

Showing up to 5 results
|